Showing default

YUNYAO-1 45, 63346

Orbit data source: Space-Track

YUNYAO-1 45, 63346 is a payload satellite owned by Yunyao yuhang (CN) in SSO that was launched on Fri, 21 Mar 2025 UTC via a GUSHENXING 1 launch vehicle from the Jiuquan Satellite Launch Center, China (JSC). Payload-class satellites include a variety of spacecraft equipped with specific instruments for various scientific and technological missions. These include communications satellites like Starlink; space stations such as the ISS; scientific satellites like the Hubble; Earth observation satellites from companies like Planet Labs, Umbra, and HawkEye 360; GPS; miniature CubeSats for education and research; and military/defense satellites.

Loading next visibility...
Identifier
63346, 2025-059C
Orbit
SSO
Last TLE update
6 hours ago
Origin
Manufacturer
Changguang WJ
Mission
Operational spacecraft
Bus & Motor
YY-1, Unknown motor
Mass
~50 kg wet, ~50 kg dry
Launch date (UTC)
2025-03-21 (3 months ago)
Launch vehicle
GUSHENXING 1
Launch site
Jiuquan Satellite Launch Center, China (JSC)
Object type
Payload
Rocket body
Debris
Shape & HBR
Unknown
Radar Cross Section
Medium (>0.1 m² and <1 m²)

Expand to show TLE details & history

TLE from 6 hours ago
0 YUNYAO-1 45
1 63346U 25059C   25182.13180785  .00002164  00000-0  14482-3 0  9999
2 63346  97.6021   1.4283 0015748 280.1477  79.7975 15.07903678 15344
Epoch: 2025-07-01T03:09Z
TLE epoch observation values (Epoch: 2025-07-01T03:09:48.198Z)
Latitude
0.00004°
Longitude
34.54581°
Altitude
543.761 km
Speed
7.591 km/s
True Right ascension
00h 05m 42s
True Declination
0° 00' 00"
Sunlit
Object was in daylight at epoch
Visualization orbit readout
Latitude
-77.87623°
Longitude
176.62678°
Altitude
560.071 km
Speed
7.586 km/s
Apparent Right ascension
08h 55m 20s
Apparent Declination
-59° 41' 14"
Sunlit
Object is in daylight
Visualization observer readout
Local Sidereal Time
20:43:51
Azimuth
184.272° SSW
Elevation
-70.147°
Doppler factor
1
Orbital elements
Apogee altitude
550.491 km
Perigee altitude
528.703 km
Semi-major axis
6,917.734 km
Eccentricity
0.00157
Inclination
97.6021°
RAAN
1.4283°
Arg. of periapsis
280.1477°
True anomaly
Unknown
Mean anomaly
79.7975°
Eccentric anomaly
Unknown
Mean motion
3.77222 °/min
Orbital period
95.43 mins
BSTAR
0.00014482
Loading maneuver chart data...
Loading SW <> Apogee altitude chart data...
Loading historical data...
Loading historical data...
Loading historical data...
Loading historical data...
Loading historical data...
Loading historical data...
Loading historical data...
Other satellites on launch #59 in the year 2025 (2025-03-21 UTC)

YUNYAO-1 45 Visibility forecast

Observer location: undefined°, undefined°

Span
Click to sort rows by Start time (UTC) header in descending order
Start Az.
Max El. time (UTC)
Max El. Az.
Max El.
End time (UTC)
End Az.
5 mins2025-07-01 11:16:37.662Z116.679° SE2025-07-01 11:18:37.662Z77.296° E23.371°2025-07-01 11:21:37.662Z18.37° NNE
4 mins2025-07-01 12:51:37.662Z229.441° WSW2025-07-01 12:53:37.662Z269.65° W19.85°2025-07-01 12:55:37.662Z306.537° NW
5 mins2025-07-02 00:27:37.662Z43.467° NE2025-07-02 00:29:37.662Z109.53° ESE34.029°2025-07-02 00:32:37.662Z168.717° S
|